Total_Precipitation_Accumulation
0.22 0.51 0.92 1.47 2.27 2.77 2.79 2.15 1.59 1.34 1.13 1.02 0.83 0.76 0.89 1.27 1.80 2.90 3.05 2.60 1.97 1.99 2.20 2.16 2.22 1.99 1.93 1.93 1.88 1.88 1.94 2.04 2.00 2.14 2.55 2.77 2.95 3.27 3.51 3.79 4.08 4.34 4.24 3.68 3.28 2.86 2.65 2.61 2.49
0.39 0.68 1.16 1.83 2.59 3.11 2.86 1.92 1.44 1.21 0.90 0.79 0.75 0.74 0.90 1.15 1.31 1.85 2.38 2.14 1.66 1.66 1.71 1.70 1.92 1.93 1.90 1.82 1.66 1.66 1.77 1.90 2.04 2.22 2.55 2.86 3.07 3.38 3.50 3.68 3.89 3.98 3.73 3.37 2.86 2.48 2.41 2.31 2.13
0.63 0.93 1.29 1.83 2.14 2.61 2.33 1.67 1.16 0.91 0.76 0.80 0.98 0.90 1.18 1.64 1.69 2.04 2.00 1.61 1.49 1.51 1.53 1.79 1.85 1.82 1.85 1.65 1.60 1.66 1.77 1.87 2.04 2.17 2.47 2.79 3.13 3.33 3.43 3.43 3.59 3.43 3.22 3.03 2.74 2.45 2.26 2.06 1.92
0.71 1.09 1.33 1.55 1.55 1.41 1.45 1.43 1.00 0.97 0.94 0.81 0.95 1.28 1.50 1.71 1.78 2.02 1.85 1.50 1.29 1.40 1.55 1.80 1.83 1.79 1.91 1.73 1.60 1.73 1.82 1.95 2.07 2.32 2.54 2.60 2.92 3.09 3.16 3.22 3.40 3.26 3.08 2.90 2.64 2.32 2.12 1.89 1.74
0.67 1.11 1.41 1.38 1.35 1.16 1.06 1.04 0.84 0.90 0.94 0.88 0.96 1.51 1.99 2.01 1.66 1.64 1.60 1.48 1.25 1.49 1.73 1.83 1.92 1.88 1.99 1.94 1.65 1.76 1.98 2.13 2.14 2.34 2.45 2.41 2.67 2.82 2.92 3.11 3.23 3.08 2.85 2.62 2.43 2.23 2.08 1.85 1.78
0.76 1.17 1.40 1.25 1.20 0.93 0.86 0.84 0.76 0.82 0.89 0.95 1.14 1.63 2.29 2.26 1.87 1.77 1.68 1.58 1.37 1.43 1.69 1.98 2.23 2.15 2.19 2.12 1.85 1.87 2.05 2.14 2.22 2.31 2.20 2.24 2.49 2.66 2.83 3.03 3.18 2.94 2.54 2.38 2.31 2.17 2.06 1.91 1.83
0.77 0.90 1.07 0.93 0.97 0.93 0.79 0.66 0.71 0.94 1.21 1.22 1.30 1.77 2.23 2.65 2.38 2.06 1.95 1.83 1.60 1.52 1.60 1.79 2.01 2.07 2.20 2.25 2.14 2.12 2.28 2.29 2.25 2.27 2.24 2.31 2.48 2.71 2.88 3.04 3.27 2.85 2.38 2.25 2.17 2.13 2.02 1.86 1.79
0.58 0.60 0.66 0.77 0.83 0.89 0.69 0.60 0.62 0.83 1.24 1.15 1.20 1.59 2.20 2.24 2.22 2.40 2.35 2.34 2.07 1.89 1.72 1.69 1.88 2.07 2.07 2.16 2.25 2.35 2.39 2.52 2.62 2.59 2.58 2.67 2.76 2.74 2.96 3.02 3.10 2.76 2.42 2.32 2.25 2.30 2.22 2.06 1.92
0.35 0.46 0.47 0.60 0.66 0.66 0.51 0.52 0.55 0.69 0.87 1.04 1.25 1.34 1.64 1.58 1.80 2.27 2.58 2.86 2.77 2.21 2.02 1.85 1.74 1.86 1.95 2.08 2.40 2.80 2.82 2.79 2.86 2.98 2.95 2.97 3.19 3.22 3.41 3.19 3.12 2.86 2.70 2.70 2.60 2.63 2.70 2.46 2.21
0.27 0.36 0.30 0.31 0.35 0.37 0.36 0.41 0.44 0.74 1.18 1.58 1.74 1.62 1.59 1.65 2.04 2.38 2.48 2.62 2.80 2.40 2.08 2.02 1.93 1.89 1.86 1.87 2.34 2.96 2.78 2.70 2.78 2.96 2.88 3.11 3.65 3.99 3.59 3.72 3.72 3.54 3.44 3.35 3.31 3.30 3.03 2.68 2.59
0.15 0.19 0.20 0.23 0.25 0.25 0.30 0.36 0.41 0.70 1.28 1.66 1.82 1.83 1.84 1.85 2.26 2.63 2.80 2.63 2.67 2.53 2.19 2.13 2.09 2.16 2.18 2.29 2.31 2.63 2.85 2.98 3.01 3.02 3.07 3.40 3.63 3.93 4.04 4.11 4.26 4.33 4.02 3.71 3.85 3.66 2.98 3.16 3.53
0.10 0.12 0.14 0.18 0.21 0.26 0.27 0.31 0.51 0.70 1.08 1.40 1.47 1.86 2.08 2.06 2.44 2.70 2.86 2.99 2.85 2.72 2.41 2.21 2.13 2.25 2.42 2.36 2.42 2.53 2.78 2.92 3.06 3.23 3.19 3.58 4.18 4.32 4.43 4.44 4.34 4.56 4.42 4.45 4.28 4.28 3.72 3.85 3.59
0.09 0.10 0.10 0.13 0.20 0.23 0.27 0.31 0.38 0.72 0.89 1.13 1.36 1.75 1.99 2.05 2.44 2.80 3.08 3.19 3.13 2.84 2.56 2.50 2.27 2.29 2.42 2.64 2.85 2.66 3.12 3.20 3.26 3.55 3.70 3.87 4.26 4.36 4.49 4.53 4.60 4.20 4.21 4.38 4.66 4.39 4.51 4.60 4.20
0.06 0.08 0.10 0.12 0.16 0.22 0.36 0.46 0.47 0.88 0.93 1.07 1.35 1.78 1.89 1.95 2.21 2.26 2.64 3.00 3.09 2.82 2.67 2.66 2.50 2.57 2.70 2.87 3.06 3.19 3.47 3.72 3.67 3.80 3.95 4.09 4.33 4.65 4.73 4.72 4.69 4.23 4.07 4.35 4.62 4.49 5.00 4.97 4.79
0.07 0.13 0.18 0.20 0.23 0.30 0.42 0.71 0.75 0.98 1.05 1.28 1.33 1.53 1.72 1.76 1.94 2.16 2.45 2.79 2.87 2.63 2.74 2.94 3.02 3.26 3.38 3.44 3.46 3.46 3.68 3.83 4.05 4.48 4.60 4.72 4.69 4.90 4.72 4.70 4.53 4.35 4.24 4.40 4.53 4.65 5.03 4.73 4.65
0.12 0.24 0.36 0.37 0.33 0.37 0.61 1.23 1.10 1.16 1.14 1.22 1.22 1.39 1.49 1.61 1.85 2.15 2.32 2.61 2.80 2.70 2.77 3.03 3.16 3.54 3.72 3.84 4.02 3.96 4.02 4.13 4.51 4.81 5.08 5.05 4.91 4.78 4.94 4.66 4.40 4.44 4.35 4.59 4.99 5.02 5.08 5.16 5.05
0.21 0.29 0.40 0.45 0.32 0.33 0.56 1.01 0.96 1.03 1.25 1.17 1.16 1.25 1.29 1.41 1.58 1.80 2.07 2.43 2.75 3.01 3.29 3.67 3.79 3.71 3.80 4.04 4.29 4.13 4.26 4.34 4.40 4.57 4.94 4.85 4.52 4.40 4.96 4.88 4.85 4.69 4.88 4.86 4.52 5.21 5.38 5.32 5.24
0.20 0.25 0.35 0.42 0.37 0.33 0.48 0.70 0.86 0.96 1.08 1.19 1.19 1.28 1.37 1.54 1.80 2.01 2.37 2.60 2.87 3.39 3.79 4.04 4.07 4.32 4.61 4.84 4.80 4.63 4.42 4.36 4.24 4.34 4.59 4.52 4.48 4.37 4.83 4.78 4.79 4.92 5.35 5.47 5.30 5.60 5.44 5.20 5.24
0.18 0.26 0.32 0.34 0.39 0.45 0.54 0.61 0.89 1.13 1.25 1.41 1.57 1.79 1.97 2.17 2.25 2.47 2.88 3.15 3.34 3.48 3.73 4.00 4.40 4.81 4.96 4.80 4.76 4.80 4.74 4.61 4.29 4.15 4.29 4.37 4.13 4.16 4.67 4.54 5.09 5.04 5.21 5.35 5.24 5.45 5.28 5.01 5.06
0.17 0.25 0.34 0.40 0.41 0.45 0.63 0.74 0.94 1.39 1.56 1.53 1.57 1.56 1.61 2.05 2.28 2.55 2.91 3.09 3.05 3.23 3.50 3.89 4.37 4.73 4.66 4.81 5.08 5.11 5.04 4.54 4.31 4.25 4.32 4.16 3.89 3.82 4.01 4.71 4.76 4.85 5.09 5.12 5.09 5.13 4.84 4.53 4.90
0.17 0.21 0.29 0.37 0.51 0.50 0.65 1.12 1.24 1.51 1.66 1.51 1.45 1.46 1.42 1.62 1.95 2.14 2.37 2.58 2.78 3.19 3.62 3.97 4.31 4.46 4.51 4.77 4.95 4.71 4.60 4.23 4.23 4.31 4.25 4.02 3.86 3.80 4.00 4.41 4.53 4.66 4.57 4.80 5.03 4.84 4.79 4.69 4.76
0.19 0.18 0.20 0.30 0.51 0.67 0.75 1.47 1.70 1.86 1.76 1.44 1.45 1.50 1.60 1.72 1.81 1.96 2.04 2.36 2.75 3.17 3.76 4.20 4.24 4.31 4.20 4.40 4.59 4.47 4.17 4.01 3.98 4.02 3.82 3.73 3.61 3.53 3.67 3.95 4.24 4.45 4.38 4.58 4.39 4.50 4.69 4.81 4.67
0.15 0.15 0.18 0.28 0.42 0.67 0.80 1.26 1.74 1.81 1.75 1.38 1.28 1.47 1.70 1.68 1.74 1.98 1.95 2.17 2.46 2.87 3.30 3.74 4.10 4.19 4.04 4.04 4.18 4.36 4.19 3.95 3.78 3.67 3.62 3.57 3.56 3.39 3.39 3.62 3.87 4.02 4.00 4.07 4.30 4.67 4.58 4.54 4.47
0.13 0.17 0.27 0.40 0.63 1.06 0.83 0.95 1.42 1.69 1.58 1.29 1.28 1.40 1.57 1.75 1.76 1.89 2.18 2.25 2.40 2.69 3.08 3.36 3.58 3.59 3.60 3.60 3.68 3.83 3.92 3.91 3.71 3.54 3.56 3.51 3.41 3.30 3.27 3.39 3.74 3.82 3.75 3.75 3.96 4.12 4.18 4.24 4.38
0.15 0.30 0.76 1.19 1.46 1.26 0.85 0.93 1.34 1.31 1.11 1.02 1.10 1.36 1.63 1.93 1.91 1.91 2.11 2.24 2.34 2.45 2.65 2.85 2.93 3.01 3.03 3.07 3.07 3.09 3.25 3.35 3.26 3.22 3.32 3.35 3.26 3.19 3.23 3.22 3.38 3.33 3.33 3.45 3.75 3.80 3.75 3.80 3.96
0.19 0.33 0.81 1.10 1.22 1.12 1.03 1.24 1.34 1.08 0.94 0.95 1.04 1.23 1.55 1.72 1.72 1.80 1.89 1.84 1.86 1.92 2.06 2.23 2.33 2.39 2.38 2.47 2.60 2.63 2.85 2.93 2.97 3.14 3.04 3.10 3.06 3.07 3.03 2.93 2.89 2.85 2.95 3.06 3.50 3.56 3.49 3.61 3.63
0.27 0.36 0.39 0.62 0.76 1.16 1.37 1.48 1.36 1.04 1.18 1.16 1.26 1.31 1.32 1.37 1.40 1.41 1.44 1.50 1.63 1.66 1.74 1.85 1.96 2.01 1.97 2.05 2.24 2.29 2.37 2.56 2.74 2.90 2.76 2.59 2.68 2.62 2.79 2.73 2.60 2.57 2.74 2.93 3.11 3.16 3.17 3.35 3.32
0.28 0.42 0.55 0.82 1.13 1.34 1.49 1.76 1.93 1.71 1.65 1.54 1.65 1.79 1.49 1.21 1.21 1.25 1.22 1.28 1.32 1.38 1.52 1.68 1.78 1.97 2.02 2.05 2.15 2.05 2.17 2.30 2.49 2.58 2.41 2.42 2.57 2.59 2.61 2.61 2.50 2.47 2.49 2.59 2.85 2.85 2.96 3.03 3.06
0.38 0.48 0.58 0.75 0.89 1.22 1.65 1.88 1.60 1.80 1.84 1.75 1.61 1.60 1.45 1.10 1.00 1.09 1.03 1.06 1.15 1.23 1.37 1.53 1.80 2.02 2.02 1.89 2.00 2.06 2.06 2.21 2.29 2.30 2.21 2.34 2.48 2.67 2.65 2.64 2.63 2.50 2.42 2.52 2.66 2.52 2.73 2.75 2.80
0.34 0.50 0.60 0.81 0.92 1.03 1.33 1.63 1.21 1.41 1.41 1.28 1.30 1.15 1.07 1.00 0.82 0.92 0.97 0.93 0.99 1.06 1.19 1.38 1.61 1.81 1.86 1.80 1.84 2.02 2.16 2.19 2.17 2.12 2.15 2.19 2.22 2.29 2.32 2.29 2.30 2.33 2.50 2.64 2.56 2.51 2.56 2.62 2.53